GW2953 Weather Reports


Display with metric or nautical units.
time (UTC)temp
F
wind
direction
speed
MPH
gust
MPH
rain 1hr
in
rain 24hr
in
rain mn
in
humidity
%
barometer
mb
20260906075350 55 266 2.0 3.0 0.00 0.00 0.00 83 1014.3
20260906074845 55 125 3.0 5.0 0.00 0.00 0.00 82 1014.5
20260906074340 55 269 2.0 3.0 0.00 0.00 0.00 82 1014.3
20260906073839 56 42 2.0 4.0 0.00 0.00 0.00 81 1014.2
20260906073334 55 33 3.0 3.0 0.00 0.00 0.00 82 1014.5
20260906072831 55 34 2.0 3.0 0.00 0.00 0.00 82 1014.3
20260906072326 56 309 0.0 2.0 0.00 0.00 0.00 82 1014.0
20260906071821 56 240 0.0 1.0 0.00 0.00 0.00 82 1014.2
20260906071316 56 15 2.0 2.0 0.00 0.00 0.00 82 1014.2
20260906070812 56 157 1.0 2.0 0.00 0.00 0.00 81 1014.3
20260906070307 56 55 3.0 4.0 0.00 0.00 0.00 80 1014.4
20260906065802 56 279 0.0 2.0 0.00 0.00 0.00 79 1014.4
20260906065257 56 49 0.0 1.0 0.00 0.00 0.00 79 1014.3
20260906064753 56 59 1.0 2.0 0.00 0.00 0.00 79 1014.3
20260906064249 57 17 1.0 3.0 0.00 0.00 0.00 78 1014.5
20260906063743 57 51 2.0 4.0 0.00 0.00 0.00 77 1014.4
20260906063239 58 315 0.0 2.0 0.00 0.00 0.00 75 1014.4
20260906062734 58 269 1.0 2.0 0.00 0.00 0.00 75 1014.5
20260906062233 57 8 3.0 3.0 0.00 0.00 0.00 76 1014.5
20260906061729 57 12 1.0 2.0 0.00 0.00 0.00 78 1014.5
20260906061226 57 269 0.0 1.0 0.00 0.00 0.00 77 1014.4
20260906060721 58 72 2.0 2.0 0.00 0.00 0.00 75 1014.4
20260906060218 58 69 3.0 3.0 0.00 0.00 0.00 74 1014.5
20260906055713 58 304 1.0 2.0 0.00 0.00 0.00 74 1014.4
20260906055208 58 309 1.0 2.0 0.00 0.00 0.00 75 1014.5
20260906054703 58 106 1.0 3.0 0.00 0.00 0.00 75 1014.5
20260906054158 59 106 1.0 3.0 0.00 0.00 0.00 73 1014.4
20260906053655 59 32 0.0 1.0 0.00 0.00 0.00 73 1014.3
20260906053150 59 81 1.0 2.0 0.00 0.00 0.00 73 1014.7
20260906052645 59 50 2.0 3.0 0.00 0.00 0.00 72 1014.4
20260906052142 60 185 0.0 1.0 0.00 0.00 0.00 70 1014.7
20260906051638 60 352 1.0 3.0 0.00 0.00 0.00 71 1014.7
20260906051137 60 50 2.0 3.0 0.00 0.00 0.00 72 1014.4
20260906050633 60 55 2.0 3.0 0.00 0.00 0.00 70 1014.5
20260906050128 61 66 3.0 3.0 0.00 0.00 0.00 67 1014.5
20260906045627 60 288 3.0 4.0 0.00 0.00 0.00 67 1014.5
20260906045122 61 130 0.0 2.0 0.00 0.00 0.00 67 1014.4
20260906044618 61 352 1.0 3.0 0.00 0.00 0.00 66 1014.5
20260906044113 62 306 0.0 3.0 0.00 0.00 0.00 65 1014.5
20260906043609 62 324 2.0 3.0 0.00 0.00 0.00 63 1014.5
20260906043104 62 263 2.0 3.0 0.00 0.00 0.00 64 1014.3
20260906042604 62 274 2.0 2.0 0.00 0.00 0.00 66 1014.1
20260906042058 63 117 0.0 2.0 0.00 0.00 0.00 64 1014.3
20260906041554 63 282 0.0 3.0 0.00 0.00 0.00 63 1014.2
20260906041049 63 78 0.0 1.0 0.00 0.00 0.00 62 1014.2
20260906040544 63 65 2.0 2.0 0.00 0.00 0.00 65 1014.3
20260906040040 63 296 2.0 2.0 0.00 0.00 0.00 60 1013.9
20260906035535 63 336 0.0 0.0 0.00 0.00 0.00 63 1013.9
20260906035031 63 266 2.0 3.0 0.00 0.00 0.00 63 1013.9
20260906034530 63 6 1.0 4.0 0.00 0.00 0.00 63 1013.9
20260906034026 63 171 1.0 4.0 0.00 0.00 0.00 63 1014.0
20260906033521 64 316 1.0 3.0 0.00 0.00 0.00 60 1013.6
20260906033016 64 169 1.0 3.0 0.00 0.00 0.00 62 1013.7
20260906032513 63 5 3.0 3.0 0.00 0.00 0.00 62 1013.6
20260906032013 64 86 2.0 3.0 0.00 0.00 0.00 57 1013.5
20260906031508 64 265 4.0 6.0 0.00 0.00 0.00 57 1013.4
20260906031004 65 144 5.0 5.0 0.00 0.00 0.00 58 1013.5
20260906030457 64 235 1.0 2.0 0.00 0.00 0.00 59 1013.2
20260906025951 65 40 2.0 4.0 0.00 0.00 0.00 58 1013.2
20260906025446 65 77 2.0 3.0 0.00 0.00 0.00 58 1013.2
20260906024945 65 297 0.0 1.0 0.00 0.00 0.00 57 1013.1
20260906024444 65 322 0.0 2.0 0.00 0.00 0.00 58 1013.1
20260906023939 66 315 0.0 2.0 0.00 0.00 0.00 58 1013.1
20260906023435 66 89 1.0 2.0 0.00 0.00 0.00 57 1013.2
20260906022930 66 142 0.0 1.0 0.00 0.00 0.00 57 1013.0
20260906022426 67 64 1.0 3.0 0.00 0.00 0.00 55 1013.3
20260906021921 68 36 2.0 6.0 0.00 0.00 0.00 50 1013.2
20260906021420 67 289 3.0 7.0 0.00 0.00 0.00 52 1013.1
20260906020914 67 247 2.0 5.0 0.00 0.00 0.00 54 1013.1
20260906020409 68 297 4.0 6.0 0.00 0.00 0.00 51 1013.3
20260906015903 68 327 1.0 3.0 0.00 0.00 0.00 51 1013.3
20260906015402 69 238 0.0 3.0 0.00 0.00 0.00 52 1013.4
20260906014856 69 281 3.0 6.0 0.00 0.00 0.00 50 1013.2
20260906014351 68 300 3.0 6.0 0.00 0.00 0.00 54 1013.1
20260906013847 68 307 2.0 5.0 0.00 0.00 0.00 55 1013.1
20260906013343 70 286 3.0 3.0 0.00 0.00 0.00 53 1013.2
20260906012838 70 22 0.0 2.0 0.00 0.00 0.00 46 1013.0
20260906012333 71 126 1.0 2.0 0.00 0.00 0.00 49 1013.0
20260906011832 71 216 1.0 3.0 0.00 0.00 0.00 44 1013.2
20260906011328 71 1 0.0 3.0 0.00 0.00 0.00 50 1013.0
20260906010823 71 294 3.0 4.0 0.00 0.00 0.00 47 1013.2
20260906010320 71 279 2.0 3.0 0.00 0.00 0.00 50 1013.1
20260906005814 71 304 0.0 1.0 0.00 0.00 0.00 46 1013.1
20260906005313 71 322 1.0 3.0 0.00 0.00 0.00 45 1013.1
20260906004813 71 37 0.0 2.0 0.00 0.00 0.00 49 1013.0
20260906004313 72 133 2.0 3.0 0.00 0.00 0.00 40 1013.1
20260906003808 72 93 3.0 5.0 0.00 0.00 0.00 41 1013.2
20260906003303 72 107 2.0 3.0 0.00 0.00 0.00 40 1013.1
20260906002759 72 106 3.0 4.0 0.00 0.00 0.00 40 1013.3
20260906002258 72 91 2.0 5.0 0.00 0.00 0.00 41 1013.1
20260906001754 73 60 2.0 4.0 0.00 0.00 0.00 41 1013.3
20260906001248 73 154 0.0 2.0 0.00 0.00 0.00 41 1013.1
20260906000743 73 231 3.0 5.0 0.00 0.00 0.00 40 1013.1
20260906000238 73 162 3.0 6.0 0.00 0.00 0.00 39 1012.9
20260905235733 73 96 2.0 4.0 0.00 0.00 0.00 42 1013.1
20260905235233 73 106 3.0 6.0 0.00 0.00 0.00 41 1013.1
20260905234729 73 217 0.0 5.0 0.00 0.00 0.00 39 1013.0
20260905234224 73 222 3.0 7.0 0.00 0.00 0.00 41 1013.1
20260905233719 73 191 0.0 5.0 0.00 0.00 0.00 40 1013.1
20260905233218 73 181 2.0 4.0 0.00 0.00 0.00 41 1013.1
20260905232713 73 230 0.0 7.0 0.00 0.00 0.00 41 1013.1
20260905232209 73 125 3.0 9.0 0.00 0.00 0.00 41 1013.2
20260905231705 73 128 0.0 5.0 0.00 0.00 0.00 40 1013.2
20260905231200 73 126 1.0 5.0 0.00 0.00 0.00 40 1013.1
20260905230656 73 146 4.0 10.0 0.00 0.00 0.00 40 1013.4
20260905230154 73 99 4.0 10.0 0.00 0.00 0.00 39 1013.3
20260905225653 74 76 2.0 7.0 0.00 0.00 0.00 39 1013.2
20260905225148 75 76 5.0 10.0 0.00 0.00 0.00 36 1013.1
20260905224648 75 60 3.0 10.0 0.00 0.00 0.00 37 1013.2
20260905224142 76 76 4.0 11.0 0.00 0.00 0.00 37 1013.3
20260905223639 76 77 6.0 11.0 0.00 0.00 0.00 38 1013.1
20260905223136 75 130 2.0 9.0 0.00 0.00 0.00 39 1013.2
20260905222631 76 79 7.0 11.0 0.00 0.00 0.00 38 1013.2
20260905222126 75 72 3.0 7.0 0.00 0.00 0.00 40 1013.2
20260905221621 75 101 5.0 12.0 0.00 0.00 0.00 40 1013.3
20260905221118 76 97 5.0 7.0 0.00 0.00 0.00 40 1013.2
20260905220613 75 64 6.0 9.0 0.00 0.00 0.00 40 1013.4
20260905220109 75 100 5.0 13.0 0.00 0.00 0.00 39 1013.5
20260905215608 76 73 5.0 8.0 0.00 0.00 0.00 39 1013.6
20260905215104 75 83 2.0 9.0 0.00 0.00 0.00 39 1013.4
20260905214601 75 108 4.0 9.0 0.00 0.00 0.00 41 1013.6
20260905214100 73 75 3.0 6.0 0.00 0.00 0.00 41 1013.4
20260905213556 73 71 8.0 10.0 0.00 0.00 0.00 43 1013.4
20260905213051 73 104 4.0 9.0 0.00 0.00 0.00 43 1013.4
20260905212551 74 83 3.0 10.0 0.00 0.00 0.00 43 1013.5
20260905212045 74 101 5.0 14.0 0.00 0.00 0.00 44 1013.5
20260905211540 76 78 1.0 9.0 0.00 0.00 0.00 40 1013.5
20260905211036 75 138 5.0 7.0 0.00 0.00 0.00 41 1013.5
20260905210531 75 134 5.0 6.0 0.00 0.00 0.00 40 1013.7
20260905210026 74 125 3.0 7.0 0.00 0.00 0.00 41 1013.7
20260905205525 75 180 2.0 10.0 0.00 0.00 0.00 40 1013.8
20260905205024 74 83 9.0 12.0 0.00 0.00 0.00 42 1013.8
20260905204520 74 94 6.0 11.0 0.00 0.00 0.00 42 1013.5
20260905204015 75 65 5.0 10.0 0.00 0.00 0.00 44 1013.7
20260905203510 74 114 7.0 12.0 0.00 0.00 0.00 44 1013.7
20260905203005 73 112 6.0 9.0 0.00 0.00 0.00 44 1013.9
20260905202500 75 121 3.0 7.0 0.00 0.00 0.00 42 1014.0
20260905201956 73 178 4.0 7.0 0.00 0.00 0.00 47 1014.0
20260905201450 74 83 6.0 15.0 0.00 0.00 0.00 47 1013.8
20260905200950 74 62 2.0 4.0 0.00 0.00 0.00 46 1014.1
20260905200446 72 66 6.0 10.0 0.00 0.00 0.00 49 1014.0
20260905195944 73 97 8.0 10.0 0.00 0.00 0.00 48 1013.8
20260905195440 71 82 6.0 8.0 0.00 0.00 0.00 50 1014.1
20260905194935 70 72 5.0 7.0 0.00 0.00 0.00 50 1013.9
20260905194434 70 112 5.0 7.0 0.00 0.00 0.00 51 1014.1
20260905193929 69 121 1.0 5.0 0.00 0.00 0.00 52 1014.3
20260905193424 69 81 3.0 7.0 0.00 0.00 0.00 53 1014.3
20260905192919 71 76 5.0 9.0 0.00 0.00 0.00 50 1014.3
20260905192414 72 193 2.0 5.0 0.00 0.00 0.00 50 1014.3
20260905191914 71 151 0.0 3.0 0.00 0.00 0.00 50 1014.3
20260905191414 70 128 2.0 5.0 0.00 0.00 0.00 50 1014.3
20260905190908 70 245 0.0 5.0 0.00 0.00 0.00 49 1014.5
20260905190400 71 166 2.0 5.0 0.00 0.00 0.00 47 1014.4
20260905185859 71 180 2.0 5.0 0.00 0.00 0.00 49 1014.5
20260905185355 69 79 3.0 7.0 0.00 0.00 0.00 53 1014.3
20260905184853 69 95 4.0 7.0 0.00 0.00 0.00 54 1014.5
20260905184353 70 71 4.0 9.0 0.00 0.00 0.00 54 1014.7
20260905183851 69 63 2.0 5.0 0.00 0.00 0.00 54 1014.7
20260905183347 68 139 3.0 6.0 0.00 0.00 0.00 54 1014.5
20260905182841 66 82 2.0 5.0 0.00 0.00 0.00 60 1014.8
20260905182335 66 83 3.0 5.0 0.00 0.00 0.00 60 1014.7
20260905181831 66 91 3.0 6.0 0.00 0.00 0.00 58 1014.7
20260905181331 67 91 7.0 9.0 0.00 0.00 0.00 58 1014.7
20260905180830 69 83 3.0 7.0 0.00 0.00 0.00 54 1014.9
20260905180325 70 62 3.0 6.0 0.00 0.00 0.00 54 1014.8
20260905175820 69 72 3.0 5.0 0.00 0.00 0.00 55 1014.9
20260905175314 67 122 3.0 3.0 0.00 0.00 0.00 59 1014.9
20260905174810 67 112 3.0 5.0 0.00 0.00 0.00 58 1014.9
20260905174306 66 178 0.0 4.0 0.00 0.00 0.00 59 1014.9
20260905173801 66 105 2.0 2.0 0.00 0.00 0.00 59 1015.0
20260905173257 67 176 2.0 3.0 0.00 0.00 0.00 56 1014.7
20260905172756 67 147 3.0 6.0 0.00 0.00 0.00 57 1014.8
20260905172255 66 185 2.0 5.0 0.00 0.00 0.00 59 1015.0
20260905171751 67 5 1.0 4.0 0.00 0.00 0.00 57 1015.0
20260905171248 67 135 4.0 7.0 0.00 0.00 0.00 59 1015.0
20260905170744 64 101 7.0 7.0 0.00 0.00 0.00 64 1014.8
20260905170239 64 101 7.0 7.0 0.00 0.00 0.00 64 1014.8
20260905165738 64 101 7.0 7.0 0.00 0.00 0.00 64 1014.8
20260905165233 64 101 7.0 7.0 0.00 0.00 0.00 64 1014.8
20260905164728 64 64 0.0 7.0 0.00 0.00 0.00 63 1014.8
20260905164223 57 230 0.0 2.0 0.00 0.00 0.00 79 1014.8
20260905163719 57 230 0.0 2.0 0.00 0.00 0.00 79 1015.3
20260905163215 57 230 0.0 2.0 0.00 0.00 0.00 79 1015.3
20260905162711 57 230 0.0 2.0 0.00 0.00 0.00 79 1015.3
20260905162210 57 230 0.0 2.0 0.00 0.00 0.00 79 1015.3
20260905161705 57 230 0.0 2.0 0.00 0.00 0.00 79 1015.3
20260905161203 57 230 0.0 2.0 0.00 0.00 0.00 79 1015.3
20260905160702 57 230 0.0 2.0 0.00 0.00 0.00 79 1015.3
20260905160202 57 230 0.0 2.0 0.00 0.00 0.00 79 1015.5
20260905155656 57 230 0.0 2.0 0.00 0.00 0.00 79 1015.5
20260905155155 55 23 2.0 3.0 0.00 0.00 0.00 86 1015.4
20260905154650 55 23 2.0 3.0 0.00 0.00 0.00 86 1015.3
20260905154145 55 23 2.0 3.0 0.00 0.00 0.00 86 1015.3
20260905153641 55 23 2.0 3.0 0.00 0.00 0.00 86 1015.5
20260905153136 55 23 2.0 3.0 0.00 0.00 0.00 86 1015.3
20260905152631 55 23 2.0 3.0 0.00 0.00 0.00 86 1015.1
20260905152126 55 23 2.0 3.0 0.00 0.00 0.00 86 1015.5
20260905151621 55 23 2.0 3.0 0.00 0.00 0.00 86 1015.3
20260905151116 55 23 2.0 3.0 0.00 0.00 0.00 86 1015.3
20260905150612 54 75 2.0 3.0 0.00 0.00 0.00 87 1015.1
20260905150109 53 73 1.0 2.0 0.00 0.00 0.00 89 1015.4
20260905145603 52 306 0.0 1.0 0.00 0.00 0.00 90 1015.2
20260905145102 52 75 0.0 1.0 0.00 0.00 0.00 92 1015.3
20260905144557 50 339 0.0 0.0 0.00 0.00 0.00 94 1015.4
20260905144056 50 339 0.0 0.0 0.00 0.00 0.00 94 1015.5
20260905143555 50 339 0.0 0.0 0.00 0.00 0.00 94 1015.5
20260905143051 49 47 2.0 3.0 0.00 0.00 0.00 94 1015.4
20260905142549 49 47 2.0 3.0 0.00 0.00 0.00 94 1015.3
20260905142044 49 330 1.0 2.0 0.00 0.00 0.00 94 1015.4
20260905141539 48 45 1.0 1.0 0.00 0.00 0.00 94 1015.3
20260905141035 48 174 1.0 4.0 0.00 0.00 0.00 94 1015.4
20260905140530 48 85 1.0 3.0 0.00 0.00 0.00 94 1015.3
20260905140029 48 319 2.0 3.0 0.00 0.00 0.00 95 1015.3
20260905135525 48 131 0.0 3.0 0.00 0.00 0.00 94 1015.5
20260905135019 48 98 1.0 2.0 0.00 0.00 0.00 95 1015.2
20260905134514 48 60 0.0 2.0 0.00 0.00 0.00 95 1015.2
20260905134013 48 299 0.0 3.0 0.00 0.00 0.00 95 1015.1
20260905133509 48 199 1.0 2.0 0.00 0.00 0.00 95 1015.2
20260905133008 48 56 3.0 4.0 0.00 0.00 0.00 95 1015.1
20260905132502 48 175 0.0 2.0 0.00 0.00 0.00 95 1015.0
20260905131957 48 267 0.0 3.0 0.00 0.00 0.00 95 1014.9
20260905131453 48 55 0.0 3.0 0.00 0.00 0.00 95 1015.1
20260905130948 48 129 2.0 3.0 0.00 0.00 0.00 95 1014.9
20260905130447 47 209 0.0 2.0 0.00 0.00 0.00 95 1014.9
20260905125941 47 215 0.0 2.0 0.00 0.00 0.00 95 1014.9
20260905125436 47 299 3.0 4.0 0.00 0.00 0.00 95 1014.9
20260905124932 47 142 0.0 2.0 0.00 0.00 0.00 95 1015.1
20260905124429 48 193 0.0 2.0 0.00 0.00 0.00 95 1015.1
20260905123929 47 13 0.0 2.0 0.00 0.00 0.00 94 1015.1
20260905123425 47 241 0.0 3.0 0.00 0.00 0.00 94 1015.0
20260905122919 47 66 0.0 3.0 0.00 0.00 0.00 94 1015.1
20260905122419 48 32 3.0 3.0 0.00 0.00 0.00 94 1015.1
20260905121915 48 219 1.0 2.0 0.00 0.00 0.00 94 1015.1
20260905121410 48 13 2.0 4.0 0.00 0.00 0.00 93 1015.2
20260905120909 48 86 4.0 4.0 0.00 0.00 0.00 93 1015.2
20260905120404 48 328 2.0 3.0 0.00 0.00 0.00 94 1015.1
20260905115858 48 46 1.0 2.0 0.00 0.00 0.00 94 1015.1
20260905115358 48 157 0.0 3.0 0.00 0.00 0.00 94 1015.2
20260905114853 48 150 1.0 4.0 0.00 0.00 0.00 94 1015.2
20260905114352 48 306 2.0 4.0 0.00 0.00 0.00 94 1015.1
20260905113846 48 173 1.0 4.0 0.00 0.00 0.00 94 1015.0
20260905113341 48 146 2.0 4.0 0.00 0.00 0.00 94 1015.0
20260905112837 48 23 2.0 3.0 0.00 0.00 0.00 94 1015.1
20260905112332 48 99 0.0 2.0 0.00 0.00 0.00 94 1015.3
20260905111827 48 227 0.0 3.0 0.00 0.00 0.00 94 1015.5
20260905111326 48 148 1.0 3.0 0.00 0.00 0.00 94 1015.5
20260905110820 48 233 1.0 3.0 0.00 0.00 0.00 94 1015.3
20260905110314 48 113 0.0 4.0 0.00 0.00 0.00 94 1015.3
20260905105810 48 301 1.0 3.0 0.00 0.00 0.00 94 1015.5
20260905105309 48 309 1.0 3.0 0.00 0.00 0.00 94 1015.6
20260905104803 48 130 0.0 2.0 0.00 0.00 0.00 94 1015.6
20260905104300 48 299 1.0 2.0 0.00 0.00 0.00 94 1015.6
20260905103759 48 22 2.0 4.0 0.00 0.00 0.00 94 1015.7
20260905103255 48 59 0.0 2.0 0.00 0.00 0.00 94 1015.4
20260905102751 48 259 2.0 3.0 0.00 0.00 0.00 94 1015.6
20260905102248 48 298 2.0 2.0 0.00 0.00 0.00 94 1015.6
20260905101747 48 211 1.0 2.0 0.00 0.00 0.00 93 1015.5
20260905101245 48 32 0.0 3.0 0.00 0.00 0.00 93 1015.4
20260905100740 48 70 2.0 3.0 0.00 0.00 0.00 93 1015.4
20260905100236 48 316 1.0 2.0 0.00 0.00 0.00 93 1015.4
20260905095736 48 240 0.0 2.0 0.00 0.00 0.00 93 1015.4
20260905095235 49 37 0.0 2.0 0.00 0.00 0.00 93 1015.2
20260905094730 49 34 0.0 2.0 0.00 0.00 0.00 93 1015.4
20260905094225 49 44 0.0 2.0 0.00 0.00 0.00 93 1015.5
20260905093725 49 260 0.0 2.0 0.00 0.00 0.00 93 1015.4
20260905093221 49 236 0.0 2.0 0.00 0.00 0.00 93 1015.3
20260905092716 49 277 0.0 1.0 0.00 0.00 0.00 92 1015.4
20260905092211 49 269 0.0 3.0 0.00 0.00 0.00 92 1015.3
20260905091710 49 9 0.0 2.0 0.00 0.00 0.00 92 1015.4
20260905091205 49 290 0.0 2.0 0.00 0.00 0.00 92 1015.4
20260905090659 49 71 2.0 3.0 0.00 0.00 0.00 92 1015.5
20260905090155 49 62 2.0 3.0 0.00 0.00 0.00 92 1015.5
20260905085654 49 49 0.0 1.0 0.00 0.00 0.00 92 1015.5
20260905085149 49 317 2.0 2.0 0.00 0.00 0.00 92 1015.4
20260905084649 49 278 0.0 2.0 0.00 0.00 0.00 92 1015.6
20260905084143 49 135 0.0 3.0 0.00 0.00 0.00 92 1015.5
20260905083638 49 293 1.0 2.0 0.00 0.00 0.00 92 1015.5
20260905083134 49 289 2.0 3.0 0.00 0.00 0.00 92 1015.5
20260905082630 50 205 0.0 1.0 0.00 0.00 0.00 92 1015.6
20260905082126 50 46 2.0 3.0 0.00 0.00 0.00 91 1015.7
20260905081625 50 89 1.0 2.0 0.00 0.00 0.00 91 1015.6
20260905081120 50 22 0.0 2.0 0.00 0.00 0.00 91 1015.5
20260905080615 50 50 0.0 1.0 0.00 0.00 0.00 91 1015.4
20260905080109 50 237 0.0 1.0 0.00 0.00 0.00 91 1015.5
20260905075608 50 129 0.0 2.0 0.00 0.00 0.00 91 1015.5